Time,TemperatureF,DewpointF,PressureIn,WindDirection,WindDirectionDegrees,WindSpeedMPH,WindSpeedGustMPH,Humidity,HourlyPrecipIn,Conditions,Clouds,dailyrainin,SolarRadiationWatts/m^2,SoftwareType,DateUTC
2013-04-22 00:03:00,38.0,19.0,-100.00,NNE,12,3.0,5.0,46,0.00,,,0.00,0.000000,,2013-04-22 04:03:00,
2013-04-22 00:13:00,38.0,19.0,-100.00,NNE,12,3.0,5.0,46,0.00,,,0.00,0.000000,,2013-04-22 04:13:00,
2013-04-22 00:23:00,38.0,19.0,-100.00,NNE,12,3.0,5.0,46,0.00,,,0.00,0.000000,,2013-04-22 04:23:00,
2013-04-22 00:33:00,38.0,19.0,-100.00,NNE,12,3.0,5.0,46,0.00,,,0.00,0.000000,,2013-04-22 04:33:00,
2013-04-22 01:03:00,37.0,19.0,-100.00,NNE,20,3.0,7.0,47,0.00,,,0.00,0.000000,,2013-04-22 05:03:00,
2013-04-22 01:12:00,37.0,19.0,-100.00,NNE,20,3.0,7.0,47,0.00,,,0.00,0.000000,,2013-04-22 05:12:00,
2013-04-22 01:22:00,37.0,19.0,-100.00,NNE,20,3.0,7.0,47,0.00,,,0.00,0.000000,,2013-04-22 05:22:00,
2013-04-22 01:32:00,37.0,19.0,-100.00,NNE,20,3.0,7.0,47,0.00,,,0.00,0.000000,,2013-04-22 05:32:00,
2013-04-22 02:02:00,35.0,18.0,-100.00,NNE,14,3.0,6.0,49,0.00,,,0.00,0.000000,,2013-04-22 06:02:00,
2013-04-22 02:12:00,35.0,18.0,-100.00,NNE,14,3.0,6.0,49,0.00,,,0.00,0.000000,,2013-04-22 06:12:00,
2013-04-22 02:21:00,35.0,18.0,-100.00,NNE,14,3.0,6.0,49,0.00,,,0.00,0.000000,,2013-04-22 06:21:00,
2013-04-22 02:32:00,35.0,18.0,-100.00,NNE,14,3.0,6.0,49,0.00,,,0.00,0.000000,,2013-04-22 06:32:00,
2013-04-22 03:01:00,34.0,18.0,-100.00,NNE,16,3.0,5.0,52,0.00,,,0.00,0.000000,,2013-04-22 07:01:00,
2013-04-22 03:12:00,34.0,18.0,-100.00,NNE,16,3.0,5.0,52,0.00,,,0.00,0.000000,,2013-04-22 07:12:00,
2013-04-22 03:22:00,34.0,18.0,-100.00,NNE,16,3.0,5.0,52,0.00,,,0.00,0.000000,,2013-04-22 07:22:00,
2013-04-22 03:32:00,34.0,18.0,-100.00,NNE,16,3.0,5.0,52,0.00,,,0.00,0.000000,,2013-04-22 07:32:00,
2013-04-22 04:02:00,33.0,19.0,-100.00,NNE,16,1.0,5.0,55,0.00,,,0.00,0.000000,,2013-04-22 08:02:00,
2013-04-22 04:11:00,33.0,19.0,-100.00,NNE,16,1.0,5.0,55,0.00,,,0.00,0.000000,,2013-04-22 08:11:00,
2013-04-22 04:22:00,33.0,19.0,-100.00,NNE,16,1.0,5.0,55,0.00,,,0.00,0.000000,,2013-04-22 08:22:00,
2013-04-22 04:32:00,33.0,19.0,-100.00,NNE,16,1.0,5.0,55,0.00,,,0.00,0.000000,,2013-04-22 08:32:00,
2013-04-22 05:01:00,33.0,18.0,-100.00,NNE,14,3.0,6.0,53,0.00,,,0.00,0.000000,,2013-04-22 09:01:00,
2013-04-22 05:11:00,33.0,18.0,-100.00,NNE,14,3.0,6.0,53,0.00,,,0.00,0.000000,,2013-04-22 09:11:00,
2013-04-22 05:21:00,33.0,18.0,-100.00,NNE,14,3.0,6.0,53,0.00,,,0.00,0.000000,,2013-04-22 09:21:00,
2013-04-22 05:33:00,33.0,18.0,-100.00,NNE,14,3.0,6.0,53,0.00,,,0.00,0.000000,,2013-04-22 09:33:00,
2013-04-22 06:03:00,33.0,18.0,-100.00,NNE,13,3.0,6.0,54,0.00,,,0.00,0.000000,,2013-04-22 10:03:00,
2013-04-22 06:12:00,33.0,18.0,-100.00,NNE,13,3.0,6.0,54,0.00,,,0.00,0.000000,,2013-04-22 10:12:00,
2013-04-22 06:23:00,33.0,18.0,-100.00,NNE,13,3.0,6.0,54,0.00,,,0.00,0.000000,,2013-04-22 10:23:00,
2013-04-22 06:32:00,33.0,18.0,-100.00,NNE,13,3.0,6.0,54,0.00,,,0.00,0.000000,,2013-04-22 10:32:00,
2013-04-22 07:02:00,33.0,19.0,-100.00,NE,38,3.0,6.0,56,0.00,,,0.00,8.000000,,2013-04-22 11:02:00,
2013-04-22 07:12:00,33.0,19.0,-100.00,NE,38,3.0,6.0,56,0.00,,,0.00,8.000000,,2013-04-22 11:12:00,
2013-04-22 07:22:00,33.0,19.0,-100.00,NE,38,3.0,6.0,56,0.00,,,0.00,8.000000,,2013-04-22 11:22:00,
2013-04-22 07:32:00,33.0,19.0,-100.00,NE,38,3.0,6.0,56,0.00,,,0.00,8.000000,,2013-04-22 11:32:00,
2013-04-22 08:02:00,34.0,20.0,-100.00,NE,36,4.0,6.0,55,0.00,,,0.00,67.000000,,2013-04-22 12:02:00,
2013-04-22 08:12:00,34.0,20.0,-100.00,NE,36,4.0,6.0,55,0.00,,,0.00,67.000000,,2013-04-22 12:12:00,
2013-04-22 08:22:00,34.0,20.0,-100.00,NE,36,4.0,6.0,55,0.00,,,0.00,67.000000,,2013-04-22 12:22:00,
2013-04-22 08:32:00,34.0,20.0,-100.00,NE,36,4.0,6.0,55,0.00,,,0.00,67.000000,,2013-04-22 12:32:00,
2013-04-22 09:01:00,39.0,22.0,-100.00,NE,39,3.0,6.0,50,0.00,,,0.00,136.000000,,2013-04-22 13:01:00,
2013-04-22 09:11:00,39.0,22.0,-100.00,NE,39,3.0,6.0,50,0.00,,,0.00,136.000000,,2013-04-22 13:11:00,
2013-04-22 09:22:00,39.0,22.0,-100.00,NE,39,3.0,6.0,50,0.00,,,0.00,136.000000,,2013-04-22 13:22:00,
2013-04-22 09:32:00,39.0,22.0,-100.00,NE,39,3.0,6.0,50,0.00,,,0.00,136.000000,,2013-04-22 13:32:00,
2013-04-22 10:02:00,47.0,23.0,-100.00,ENE,74,1.0,4.0,38,0.00,,,-99.99,475.000000,,2013-04-22 14:02:00,
2013-04-22 10:12:00,47.0,23.0,-100.00,ENE,74,1.0,4.0,38,0.00,,,-99.99,475.000000,,2013-04-22 14:12:00,
2013-04-22 10:22:00,47.0,23.0,-100.00,ENE,74,1.0,4.0,38,0.00,,,-99.99,475.000000,,2013-04-22 14:22:00,
2013-04-22 10:33:00,47.0,23.0,-100.00,ENE,74,1.0,4.0,38,0.00,,,-99.99,475.000000,,2013-04-22 14:33:00,
2013-04-22 11:02:00,51.0,23.0,-100.00,SE,143,2.0,6.0,33,0.00,,,0.00,519.000000,,2013-04-22 15:02:00,
2013-04-22 11:12:00,51.0,23.0,-100.00,SE,143,2.0,6.0,33,0.00,,,0.00,519.000000,,2013-04-22 15:12:00,
2013-04-22 11:22:00,51.0,23.0,-100.00,SE,143,2.0,6.0,33,0.00,,,0.00,519.000000,,2013-04-22 15:22:00,
2013-04-22 11:33:00,51.0,23.0,-100.00,SE,143,2.0,6.0,33,0.00,,,0.00,519.000000,,2013-04-22 15:33:00,
2013-04-22 12:03:00,55.0,22.0,-100.00,SSE,163,2.0,9.0,27,0.00,,,0.00,547.000000,,2013-04-22 16:03:00,
2013-04-22 12:12:00,55.0,22.0,-100.00,SSE,163,2.0,9.0,27,0.00,,,0.00,547.000000,,2013-04-22 16:12:00,
2013-04-22 12:23:00,55.0,22.0,-100.00,SSE,163,2.0,9.0,27,0.00,,,0.00,547.000000,,2013-04-22 16:23:00,
2013-04-22 12:33:00,55.0,22.0,-100.00,SSE,163,2.0,9.0,27,0.00,,,0.00,547.000000,,2013-04-22 16:33:00,
2013-04-22 13:02:00,56.0,20.0,-100.00,East,101,3.0,8.0,24,0.00,,,0.00,854.000000,,2013-04-22 17:02:00,
2013-04-22 13:12:00,56.0,20.0,-100.00,East,101,3.0,8.0,24,0.00,,,0.00,854.000000,,2013-04-22 17:12:00,
2013-04-22 13:22:00,56.0,20.0,-100.00,East,101,3.0,8.0,24,0.00,,,0.00,854.000000,,2013-04-22 17:22:00,
2013-04-22 13:32:00,56.0,20.0,-100.00,East,101,3.0,8.0,24,0.00,,,0.00,854.000000,,2013-04-22 17:32:00,
2013-04-22 14:02:00,58.0,18.0,-100.00,East,87,3.0,8.0,21,0.00,,,0.00,770.000000,,2013-04-22 18:02:00,
2013-04-22 14:12:00,58.0,18.0,-100.00,East,87,3.0,8.0,21,0.00,,,0.00,770.000000,,2013-04-22 18:12:00,
2013-04-22 14:22:00,58.0,18.0,-100.00,East,87,3.0,8.0,21,0.00,,,0.00,770.000000,,2013-04-22 18:22:00,
2013-04-22 14:32:00,58.0,18.0,-100.00,East,87,3.0,8.0,21,0.00,,,0.00,770.000000,,2013-04-22 18:32:00,
2013-04-22 15:02:00,62.0,20.0,-100.00,SE,143,3.0,8.0,20,0.00,,,0.00,811.000000,,2013-04-22 19:02:00,
2013-04-22 15:12:00,62.0,20.0,-100.00,SE,143,3.0,8.0,20,0.00,,,0.00,811.000000,,2013-04-22 19:12:00,
2013-04-22 15:22:00,62.0,20.0,-100.00,SE,143,3.0,8.0,20,0.00,,,0.00,811.000000,,2013-04-22 19:22:00,
2013-04-22 15:32:00,62.0,20.0,-100.00,SE,143,3.0,8.0,20,0.00,,,0.00,811.000000,,2013-04-22 19:32:00,
2013-04-22 16:02:00,64.0,17.0,-100.00,ESE,108,3.0,7.0,16,0.00,,,0.00,864.000000,,2013-04-22 20:02:00,
2013-04-22 16:11:00,64.0,17.0,-100.00,ESE,108,3.0,7.0,16,0.00,,,0.00,864.000000,,2013-04-22 20:11:00,
2013-04-22 16:22:00,64.0,17.0,-100.00,ESE,108,3.0,7.0,16,0.00,,,0.00,864.000000,,2013-04-22 20:22:00,
2013-04-22 16:32:00,64.0,17.0,-100.00,ESE,108,3.0,7.0,16,0.00,,,0.00,864.000000,,2013-04-22 20:32:00,
2013-04-22 17:02:00,64.0,20.0,-100.00,SSE,154,3.0,8.0,18,0.00,,,0.00,692.000000,,2013-04-22 21:02:00,
2013-04-22 17:12:00,64.0,20.0,-100.00,SSE,154,3.0,8.0,18,0.00,,,0.00,692.000000,,2013-04-22 21:12:00,
2013-04-22 17:22:00,64.0,20.0,-100.00,SSE,154,3.0,8.0,18,0.00,,,0.00,692.000000,,2013-04-22 21:22:00,
2013-04-22 17:33:00,64.0,20.0,-100.00,SSE,154,3.0,8.0,18,0.00,,,0.00,692.000000,,2013-04-22 21:33:00,
2013-04-22 18:03:00,62.0,23.0,-100.00,SE,146,3.0,8.0,22,0.00,,,0.00,443.000000,,2013-04-22 22:03:00,
2013-04-22 18:12:00,62.0,23.0,-100.00,SE,146,3.0,8.0,22,0.00,,,0.00,443.000000,,2013-04-22 22:12:00,
2013-04-22 18:22:00,62.0,23.0,-100.00,SE,146,3.0,8.0,22,0.00,,,0.00,443.000000,,2013-04-22 22:22:00,
2013-04-22 18:33:00,62.0,23.0,-100.00,SE,146,3.0,8.0,22,0.00,,,0.00,443.000000,,2013-04-22 22:33:00,
2013-04-22 19:02:00,58.0,21.0,-100.00,SE,145,2.0,7.0,24,0.00,,,0.00,177.000000,,2013-04-22 23:02:00,
2013-04-22 19:12:00,58.0,21.0,-100.00,SE,145,2.0,7.0,24,0.00,,,0.00,177.000000,,2013-04-22 23:12:00,
2013-04-22 19:22:00,58.0,21.0,-100.00,SE,145,2.0,7.0,24,0.00,,,0.00,177.000000,,2013-04-22 23:22:00,
2013-04-22 19:33:00,58.0,21.0,-100.00,SE,145,2.0,7.0,24,0.00,,,0.00,177.000000,,2013-04-22 23:33:00,
2013-04-22 20:02:00,52.0,22.0,-100.00,SSE,153,2.0,7.0,30,0.00,,,0.00,41.000000,,2013-04-23 00:02:00,
2013-04-22 20:12:00,52.0,22.0,-100.00,SSE,153,2.0,7.0,30,0.00,,,0.00,41.000000,,2013-04-23 00:12:00,
2013-04-22 20:22:00,52.0,22.0,-100.00,SSE,153,2.0,7.0,30,0.00,,,0.00,41.000000,,2013-04-23 00:22:00,
2013-04-22 20:32:00,52.0,22.0,-100.00,SSE,153,2.0,7.0,30,0.00,,,0.00,41.000000,,2013-04-23 00:32:00,
2013-04-22 21:01:00,48.0,20.0,-100.00,SSE,147,1.0,5.0,33,0.00,,,0.00,2.000000,,2013-04-23 01:01:00,
2013-04-22 21:11:00,48.0,20.0,-100.00,SSE,147,1.0,5.0,33,0.00,,,0.00,2.000000,,2013-04-23 01:11:00,
2013-04-22 21:22:00,48.0,20.0,-100.00,SSE,147,1.0,5.0,33,0.00,,,0.00,2.000000,,2013-04-23 01:22:00,
2013-04-22 21:32:00,48.0,20.0,-100.00,SSE,147,1.0,5.0,33,0.00,,,0.00,2.000000,,2013-04-23 01:32:00,
2013-04-22 22:02:00,45.0,20.0,-100.00,SSE,152,2.0,7.0,36,0.00,,,0.00,0.000000,,2013-04-23 02:02:00,
2013-04-22 22:12:00,45.0,20.0,-100.00,SSE,152,2.0,7.0,36,0.00,,,0.00,0.000000,,2013-04-23 02:12:00,
2013-04-22 22:22:00,45.0,20.0,-100.00,SSE,152,2.0,7.0,36,0.00,,,0.00,0.000000,,2013-04-23 02:22:00,
2013-04-22 22:32:00,45.0,20.0,-100.00,SSE,152,2.0,7.0,36,0.00,,,0.00,0.000000,,2013-04-23 02:32:00,
2013-04-22 23:02:00,43.0,26.0,-100.00,SSE,164,0.0,7.0,51,0.00,,,0.00,0.000000,,2013-04-23 03:02:00,
2013-04-22 23:11:00,43.0,26.0,-100.00,SSE,164,0.0,7.0,51,0.00,,,0.00,0.000000,,2013-04-23 03:11:00,
2013-04-22 23:22:00,43.0,26.0,-100.00,SSE,164,0.0,7.0,51,0.00,,,0.00,0.000000,,2013-04-23 03:22:00,
2013-04-22 23:33:00,43.0,26.0,-100.00,SSE,164,0.0,7.0,51,0.00,,,0.00,0.000000,,2013-04-23 03:33:00,